LiveATC.Net - Listen to live air traffic control over the Internet!


ICAO: CYSB  IATA: YSB   Airport: Sudbury Airport
City: Sudbury   State/Province: Ontario
Country: Canada   Continent: North America
CYSB METAR Weather: CYSB 250300Z 14011KT 15SM BKN025 OVC240 14/09 A3014 RMK SC7CI1 SLP215
CYSB Flight Activity (FlightAware)

CYSB Gnd/Twr/Center
Feed Status: UP   Listeners: 0
Listen right in your browser - requires Flash (in browser, requires Flash)
Click here to listen with your own player (launches your MP3 player)
CYSB Gnd/Twr/Center Audio Archives
FacilityFrequency
Sudbury Ground121.800
Sudbury Tower125.500
Toronto Centre135.500

NOTICE

Unauthorized use prohibited. See LiveATC.net Terms of Service


Find LiveATC Audio Streams


Airport/ARTCC Code

Frequency Search
(e.g., 124.400, 128.75)
Site-wide search
 


Browse LiveATC Feeds
Top 50 LiveATC Feeds
Bad Weather Areas

LiveATC FAQ
Offer a LiveATC Feed
Contact LiveATC.net
Press Inquiries

LiveATC on iPhone
LiveATC on Android

Windows Phone
Windows 8/10

LiveATC Mobile
(Mobile browser)

ATC Audio Archives
Interesting Recordings

LiveATC Forums


Home Page
About LiveATC.net
Make a Donation
Terms of Use
Privacy Policy

Canadian Air Freqs

AIRMETs/SIGMETs

FAA Airport Status
Nat'l Airspace Status
Arrival Demand Charts


Server Software By:
Icecast.org
Liquidsoap